星链-35366(STARLINK-35366)

导读 | 豆包AI

STARLINK-35366是美国SpaceX公司Starlink星链项目的卫星,于2025年11月15日由猎鹰9号火箭发射入近地轨道,属于Starlink Group 6-89任务批次,为V2 Mini型号卫星。星链项目通过低轨星座部署,旨在为全球提供高速低延迟宽带互联网服务,该卫星的发射进一步扩充了星链卫星星座规模,助力全球无缝覆盖目标实现。V2 Mini卫星支持手机直连,性能相比前代大幅提升,可增强偏远地区、海洋及航空领域的网络覆盖能力。

基本信息
目录编号:
66512
目录名称:
STARLINK-35366
国际标识:
2025-263AD
轨道中心:
EARTH
卫星名称:
星链-35366
卫星全名:
星链-35366(STARLINK-35366)
卫星状态:
在轨 (已飞行119 天)
发射日期:
2025-11-15 UTC
国别 :
美国 (US)
星等 :
--
轨道信息
数据来源 国际轨道数据
星历时间: 2026-03-14T06:00:02+0800
8小时前
查看轨道信息
半长轴: 6861.205km
偏心率: 0.0001655
轨道倾角: 43.001°
近地点辐角 266.134°
升交点赤经 326.873°
平近点角 133.004°
近地点: 481.932km
远地点: 484.204km
周期: 94.267分钟
每日圈数: 15.275738
详细信息
固有亮度:
5
最大亮度:
2.5
卫星平台:
Starlink V1.0
覆盖范围:
全球
运营商:
太空探索技术公司
运营商所在国:
美国
制造商(研发单位):
太空探索技术公司
制造商所在国:
美国
使用方式:
暂无
卫星简介
Starlink 计划是 SpaceX 推出的全球卫星互联网项目,通过发射低轨道卫星,为全球尤其是偏远地区提供高速、低延迟的互联网服务。自 2019 年起,Starlink 已部署数千颗卫星,旨在缩小全球数字鸿沟,推动互联网普及。该项目还为军事、航空等行业提供通信支持,带来广泛经济效益。
2D轨道图
3D轨道图
轨道高度分析图
轨道倾角分析图
轨道综合分析图
查看轨道综合分析图